Weather History for KSUX - July, 2013

Change the Weather History Date:

Monday, July 29, 2013

  Actual Average Record
Temperature  
Mean Temperature 59 °F 74 °F  
Max Temperature 67 °F 85 °F 107 °F (1947)
Min Temperature 50 °F 63 °F 48 °F (1952)
Degree Days  
Heating Degree Days 6 0  
Month to date heating degree days 15 0  
Since 1 June heating degree days 55 27  
Since 1 July heating degree days 15 0  
Cooling Degree Days 0 9  
Month to date cooling degree days 276 278  
Year to date cooling degree days 527 530  
Since 1 June cooling degree days 471 466  
Growing Degree Days 8 (Base 50)    
Moisture  
Dew Point 55 °F    
Average Humidity 77    
Maximum Humidity 89    
Minimum Humidity 67    
Precipitation  
Precipitation 0.01 in 0.11 in 2.68 in (1989)
Month to date precipitation 0.60 3.23  
Year to date precipitation 17.06 17.10  
Snow  
Snow 0.00 in 0.00 in 0.00 in ()
Month to date snowfall 0.0 0.0  
Since 1 June snowfall 0.0 0.0  
Since 1 July snowfall 0.0 0.0  
Snow Depth 0.00 in    
Sea Level Pressure  
Sea Level Pressure 30.06 in    
Wind  
Wind Speed 6 mph (SE)    
Max Wind Speed 16 mph    
Max Gust Speed 21 mph    
Visibility 10 miles    
Events      
T = Trace of Precipitation, MM = Missing Value Source: NWS Daily Summary

Daily Weather History Graph

Daily Weather History Graph

Search for Another Location

Airport or City:

Trip Planner

Search our weather history database for the weather conditions in past years. The results will help you decide how hot, cold, wet, or windy it might be!

Date:

Astronomy

Jul. 29, 2013 Rise Set
Actual Time 6:15 AM CDT 8:48 PM CDT
Civil Twilight 5:43 AM CDT 9:20 PM CDT
Nautical Twilight 5:02 AM CDT 10:00 PM CDT
Astronomical Twilight 4:17 AM CDT 10:45 PM CDT
Moon 12:01 AM CDT (7/29) 2:08 PM CDT (7/29)
Length of Visible Light 15h 37m
Length of Day
14h 32m
Waning Gibbous, 50% of the Moon is Illuminated
Jul 29
Waning Gibbous
Jul 29
Last Quarter
Aug 6
New
Aug 14
First Quarter
Aug 20
Full

Hourly Weather History & Observations

Time (CDT) Temp. Dew Point Humidity Pressure Visibility Wind Dir Wind Speed Gust Speed Precip Events Conditions
12:52 AM 55.9 °F 48.0 °F 75% 30.06 in 10.0 mi SE 3.5 mph - N/A   Clear
1:52 AM 51.1 °F 48.0 °F 89% 30.07 in 10.0 mi Calm Calm - N/A   Clear
2:52 AM 53.1 °F 46.9 °F 80% 30.06 in 10.0 mi Calm Calm - N/A   Clear
3:52 AM 53.1 °F 48.0 °F 83% 30.06 in 10.0 mi East 4.6 mph - N/A   Clear
4:52 AM 52.0 °F 48.0 °F 86% 30.05 in 10.0 mi ESE 4.6 mph - N/A   Clear
5:52 AM 53.1 °F 48.9 °F 86% 30.06 in 10.0 mi SE 3.5 mph - N/A   Mostly Cloudy
6:52 AM 55.9 °F 48.9 °F 77% 30.07 in 10.0 mi ESE 5.8 mph - N/A   Overcast
7:52 AM 57.0 °F 51.1 °F 81% 30.07 in 10.0 mi ESE 8.1 mph - N/A   Overcast
8:52 AM 59.0 °F 53.1 °F 81% 30.07 in 10.0 mi ESE 8.1 mph - N/A   Overcast
9:52 AM 62.1 °F 53.1 °F 72% 30.07 in 10.0 mi SSE 6.9 mph - N/A   Mostly Cloudy
10:52 AM 63.0 °F 55.0 °F 75% 30.08 in 10.0 mi SSE 6.9 mph - 0.00 in   Mostly Cloudy
11:52 AM 62.1 °F 55.0 °F 78% 30.09 in 10.0 mi SSE 9.2 mph - 0.01 in   Overcast
12:52 PM 64.0 °F 55.9 °F 75% 30.08 in 10.0 mi SSE 9.2 mph - 0.00 in   Overcast
1:52 PM 64.9 °F 55.9 °F 73% 30.07 in 10.0 mi ESE 9.2 mph - N/A   Overcast
2:49 PM 66.2 °F 55.4 °F 68% 30.06 in 10.0 mi SE 12.7 mph 18.4 mph N/A   Overcast
2:52 PM 66.0 °F 55.9 °F 70% 30.06 in 10.0 mi SE 15.0 mph 20.7 mph N/A   Overcast
3:52 PM 66.0 °F 57.0 °F 73% 30.06 in 10.0 mi SE 8.1 mph - N/A   Overcast
4:52 PM 66.0 °F 57.0 °F 73% 30.05 in 10.0 mi SSE 9.2 mph - N/A   Overcast
5:35 PM 64.4 °F 57.2 °F 77% 30.05 in 10.0 mi SE 9.2 mph - N/A   Overcast
5:52 PM 66.0 °F 57.9 °F 75% 30.04 in 10.0 mi SE 9.2 mph - 0.00 in   Overcast
6:52 PM 66.0 °F 59.0 °F 78% 30.04 in 10.0 mi ESE 6.9 mph - N/A   Overcast
7:22 PM 66.2 °F 59.0 °F 78% 30.03 in 10.0 mi ESE 6.9 mph - N/A   Overcast
7:52 PM 66.0 °F 59.0 °F 78% 30.03 in 10.0 mi East 6.9 mph - N/A   Overcast
8:21 PM 66.2 °F 59.0 °F 78% 30.03 in 10.0 mi ESE 8.1 mph - N/A   Overcast
8:52 PM 66.0 °F 60.1 °F 81% 30.04 in 10.0 mi East 4.6 mph - N/A   Overcast
9:52 PM 66.0 °F 60.1 °F 81% 30.07 in 10.0 mi East 5.8 mph - N/A   Overcast
10:52 PM 66.0 °F 61.0 °F 84% 30.06 in 10.0 mi East 4.6 mph - N/A   Overcast
11:52 PM 64.9 °F 61.0 °F 87% 30.05 in 10.0 mi ESE 3.5 mph - N/A   Overcast